Jefferson, NC

10:01 AM EDT on July 23, 2016 (GMT -0400)
Ashe County

Weather History for KGEV - January, 2003

Change the Weather History Date:

Friday, January 31, 2003

  Actual Average Record
Temperature  
Mean Temperature 32 °F -  
Max Temperature 33 °F 45 °F 69 °F (2002)
Min Temperature 32 °F 23 °F -9 °F (1981)
Degree Days  
Heating Degree Days 32    
Moisture  
Dew Point 33 °F    
Average Humidity 100    
Maximum Humidity 100    
Minimum Humidity 100    
Precipitation  
Precipitation 0.00 in - - ()
Sea Level Pressure  
Sea Level Pressure 30.05 in    
Wind  
Wind Speed 1 mph (SE)    
Max Wind Speed 5 mph    
Max Gust Speed -    
Averages and records for this station are not official NWS values.
T = Trace of Precipitation, MM = Missing Value Source: NWS Daily Summary

Daily Weather History Graph

Daily Weather History Graph

Search for Another Location

Airport or City:

Trip Planner

Search our weather history database for the weather conditions in past years. The results will help you decide how hot, cold, wet, or windy it might be!

Date:

Astronomy

Jan. 31, 2003 Rise Set
Actual Time 7:28 AM EST 5:50 PM EST
Civil Twilight 7:01 AM EST 6:17 PM EST
Nautical Twilight 6:30 AM EST 6:48 PM EST
Astronomical Twilight 5:59 AM EST 7:18 PM EST
Moon 7:14 AM EST (1/31) 5:03 PM EST (1/31)
Length of Visible Light 11h 16m
Length of Day
10h 22m
Waning Crescent, 1% of the Moon is Illuminated
Jan 31
Waning Crescent
Feb 1
New
Feb 9
First Quarter
Feb 16
Full
Feb 23
Last Quarter

Hourly Weather History & Observations

Time (EST) Temp. Windchill Dew Point Humidity Pressure Visibility Wind Dir Wind Speed Gust Speed Precip Events Conditions
12:02 AM 32.0 °F - 32.0 °F 100% 30.14 in 0.5 mi Calm Calm - N/A Fog Fog
12:21 AM 32.0 °F - 32.0 °F 100% 30.14 in 0.2 mi Calm Calm - N/A Fog Fog
12:40 AM 32.0 °F - 32.0 °F 100% 30.13 in 0.2 mi Calm Calm - N/A Fog Fog
1:01 AM 32.0 °F - 32.0 °F 100% 30.12 in 0.2 mi Calm Calm - N/A Fog Fog
1:20 AM 32.0 °F - 32.0 °F 100% 30.11 in 0.2 mi Calm Calm - N/A Fog Fog
1:40 AM 32.0 °F - 32.0 °F 100% 30.11 in 0.2 mi Calm Calm - N/A Fog Fog
2:02 AM 32.0 °F - 32.0 °F 100% 30.11 in 0.5 mi Calm Calm - N/A Fog Fog
2:20 AM 32.0 °F - 32.0 °F 100% 30.10 in 1.0 mi Calm Calm - N/A   Overcast
2:40 AM 32.0 °F - 32.0 °F 100% 30.11 in 0.8 mi Calm Calm - N/A   Overcast
3:01 AM 32.0 °F - 32.0 °F 100% 30.10 in 0.2 mi Calm Calm - N/A Fog Fog
3:20 AM 32.0 °F - 32.0 °F 100% 30.10 in 0.2 mi Calm Calm - N/A Fog Fog
3:40 AM 32.0 °F - 32.0 °F 100% 30.10 in 0.2 mi Calm Calm - N/A Fog Fog
4:00 AM 32.0 °F - 32.0 °F 100% 30.09 in 0.2 mi Calm Calm - N/A Fog Fog
4:20 AM 32.0 °F - 32.0 °F 100% 30.09 in 0.2 mi Calm Calm - N/A Fog Fog
4:40 AM 32.0 °F - 32.0 °F 100% 30.09 in 0.2 mi Calm Calm - N/A Fog Fog
5:00 AM 32.0 °F - 32.0 °F 100% 30.09 in 0.2 mi Calm Calm - N/A Fog Fog
5:21 AM 32.0 °F - 32.0 °F 100% 30.09 in 0.5 mi Calm Calm - N/A Fog Fog
5:40 AM 32.0 °F - 32.0 °F 100% 30.09 in 0.2 mi Calm Calm - N/A Fog Fog
6:00 AM 32.0 °F - 32.0 °F 100% 30.09 in 0.2 mi Calm Calm - N/A Fog Fog
6:21 AM 32.0 °F - 32.0 °F 100% 30.09 in 0.2 mi Calm Calm - N/A Fog Fog
6:40 AM 32.0 °F - 32.0 °F 100% 30.09 in 0.2 mi Calm Calm - N/A Fog Fog
7:00 AM 32.0 °F - 32.0 °F 100% 30.10 in 0.2 mi Calm Calm - N/A Fog Fog
7:20 AM 32.0 °F - 32.0 °F 100% 30.09 in 0.2 mi Calm Calm - N/A Fog Fog
7:40 AM 32.0 °F 28.7 °F 32.0 °F 100% 30.10 in 0.2 mi NNE 3.5 mph - N/A Fog Fog
8:00 AM 32.0 °F - 32.0 °F 100% 30.09 in 0.2 mi Calm Calm - N/A Fog Fog
8:20 AM 32.0 °F - 32.0 °F 100% 30.09 in 0.2 mi Calm Calm - N/A Fog Fog
8:42 AM 32.0 °F - 32.0 °F 100% 30.10 in 0.2 mi Calm Calm - N/A Fog Fog
9:00 AM 32.0 °F - 32.0 °F 100% 30.10 in 0.2 mi Calm Calm - N/A Fog Fog
9:20 AM 32.0 °F 28.7 °F 32.0 °F 100% 30.10 in 0.2 mi NE 3.5 mph - N/A Fog Fog
9:40 AM 32.0 °F - 32.0 °F 100% 30.11 in 0.5 mi Calm Calm - N/A Fog Fog
10:00 AM 32.0 °F - 32.0 °F 100% 30.10 in 0.5 mi Calm Calm - N/A Fog Fog
10:20 AM 32.0 °F 28.7 °F 32.0 °F 100% 30.10 in 0.5 mi NE 3.5 mph - N/A Fog Fog
10:40 AM 32.0 °F - 32.0 °F 100% 30.09 in 0.5 mi Calm Calm - N/A Fog Fog
11:00 AM 32.0 °F 27.5 °F 32.0 °F 100% 30.07 in 0.8 mi ENE 4.6 mph - N/A   Overcast
11:20 AM 32.0 °F - 32.0 °F 100% 30.07 in 0.2 mi Calm Calm - N/A Fog Fog
11:40 AM 32.0 °F - 32.0 °F 100% 30.08 in 0.5 mi Calm Calm - N/A Fog Fog
12:01 PM 32.0 °F - 32.0 °F 100% 30.07 in 0.5 mi Calm Calm - N/A Fog Fog
12:20 PM 32.0 °F 28.7 °F 32.0 °F 100% 30.04 in 0.2 mi ESE 3.5 mph - N/A Fog Fog
12:40 PM 32.0 °F 28.7 °F 32.0 °F 100% 30.03 in 0.2 mi ESE 3.5 mph - N/A Fog Fog
1:00 PM 32.0 °F - 32.0 °F 100% 30.02 in 0.2 mi Calm Calm - N/A Fog Fog
1:20 PM 33.8 °F - 33.8 °F 100% 30.02 in 0.5 mi Calm Calm - N/A Fog Fog
1:40 PM 33.8 °F 29.6 °F 33.8 °F 100% 30.00 in 0.2 mi SE 4.6 mph - N/A Fog Fog
2:00 PM 33.8 °F 29.6 °F 33.8 °F 100% 29.99 in 0.2 mi SSE 4.6 mph - N/A Fog Fog
2:20 PM 33.8 °F 30.8 °F 33.8 °F 100% 29.98 in 0.2 mi South 3.5 mph - N/A Fog Fog
2:41 PM 33.8 °F 30.8 °F 33.8 °F 100% 29.97 in 2.5 mi SSE 3.5 mph - N/A   Overcast
3:00 PM 33.8 °F 30.8 °F 33.8 °F 100% 29.97 in 0.5 mi SSE 3.5 mph - N/A Fog Fog
3:21 PM 33.8 °F 30.8 °F 33.8 °F 100% 29.97 in 0.2 mi SE 3.5 mph - N/A Fog Fog
3:40 PM 33.8 °F - 33.8 °F 100% 29.97 in 0.2 mi Calm Calm - N/A Fog Fog
4:00 PM 33.8 °F - 33.8 °F 100% 29.96 in 0.2 mi Calm Calm - N/A Fog Fog
4:20 PM 33.8 °F 30.8 °F 33.8 °F 100% 29.95 in 0.2 mi SE 3.5 mph - N/A Fog Fog
4:40 PM 33.8 °F 30.8 °F 33.8 °F 100% 29.95 in 0.2 mi ESE 3.5 mph - N/A Fog Fog
5:00 PM 33.8 °F - 33.8 °F 100% 29.94 in 0.2 mi Calm Calm - N/A Fog Fog
5:20 PM 33.8 °F - 33.8 °F 100% 29.94 in 0.2 mi Calm Calm - N/A Fog Fog
5:40 PM 33.8 °F - 33.8 °F 100% 29.93 in 0.2 mi Calm Calm - N/A Fog Fog
6:00 PM 33.8 °F - 33.8 °F 100% 29.93 in 0.2 mi Calm Calm - N/A Fog Fog
6:20 PM 33.8 °F 30.8 °F 33.8 °F 100% 29.93 in 0.5 mi SE 3.5 mph - N/A Fog Fog
6:40 PM 33.8 °F 30.8 °F 33.8 °F 100% 29.94 in 0.2 mi SSE 3.5 mph - N/A Fog Fog
7:00 PM 33.8 °F 29.6 °F 33.8 °F 100% 29.93 in 0.2 mi SE 4.6 mph - N/A Fog Fog
7:21 PM 33.8 °F 29.6 °F 33.8 °F 100% 29.93 in 0.2 mi SSE 4.6 mph - N/A Fog Fog
7:40 PM 33.8 °F 30.8 °F 33.8 °F 100% 29.93 in 0.2 mi SSE 3.5 mph - N/A Fog Fog
8:00 PM 33.8 °F 30.8 °F 33.8 °F 100% 29.93 in 0.2 mi South 3.5 mph - N/A Fog Fog
8:21 PM 32.0 °F - 32.0 °F 100% 29.93 in 0.2 mi Calm Calm - N/A Fog Fog
8:40 PM 32.0 °F - 32.0 °F 100% 29.92 in 0.2 mi Calm Calm - N/A Fog Fog
9:01 PM 32.0 °F 27.5 °F 32.0 °F 100% 29.91 in 0.2 mi SSE 4.6 mph - N/A Fog Fog
9:23 PM 32.0 °F - 32.0 °F 100% 29.91 in 0.2 mi Calm Calm - N/A Fog Fog
9:40 PM 32.0 °F 28.7 °F 32.0 °F 100% 29.91 in 0.2 mi SSE 3.5 mph - N/A Fog Fog
10:01 PM 32.0 °F 28.7 °F 32.0 °F 100% 29.91 in 0.2 mi SSE 3.5 mph - N/A Fog Fog
10:21 PM 32.0 °F - 32.0 °F 100% 29.91 in 0.2 mi Calm Calm - N/A Fog Fog
10:41 PM 32.0 °F - 32.0 °F 100% 29.91 in 0.2 mi Calm Calm - N/A Fog Fog
11:00 PM 32.0 °F - 32.0 °F 100% 29.90 in 0.2 mi Calm Calm - N/A Fog Fog
11:20 PM 32.0 °F - 32.0 °F 100% 29.89 in 0.5 mi Calm Calm - N/A Fog Fog
11:40 PM 32.0 °F - 32.0 °F 100% 29.89 in 0.5 mi Calm Calm - N/A Fog Fog